Probability
0 0 0 0 0 0 0 0 0 0 0 0 0 0 3 13 16 19 16 16 16 13 6 13 13 16 16 6 6 6 6 6 6 3 6 0 0 0 0 0 0 0 0 0
0 0 0 0 0 0 0 0 0 0 0 0 0 0 0 6 16 16 16 16 13 13 10 10 10 19 16 13 13 13 6 6 6 6 3 0 0 0 0 0 0 0 0 0
0 0 0 0 0 0 0 0 0 0 0 0 0 0 0 0 3 10 16 16 10 13 16 13 13 19 23 10 6 10 6 6 6 3 0 0 0 0 0 0 0 0 0 0
0 0 0 0 0 0 0 0 0 0 0 0 0 0 0 0 3 3 10 10 13 13 13 10 13 13 19 19 6 6 6 10 6 3 0 0 0 0 0 0 0 0 0 0
0 0 0 0 0 0 0 0 0 0 0 0 0 0 0 0 0 0 6 10 10 10 10 13 13 6 6 19 16 13 10 10 6 3 3 0 0 0 0 0 0 0 0 0
0 0 0 0 0 0 0 0 0 0 0 0 0 0 0 0 0 0 0 6 10 6 10 13 10 6 6 6 10 13 10 13 6 3 3 0 0 0 0 0 0 0 0 0
0 0 0 0 0 0 0 0 0 0 0 0 0 0 0 0 0 0 0 0 3 0 3 10 10 10 6 10 16 13 10 10 6 3 3 3 0 0 0 0 0 0 0 0
0 0 0 0 0 0 0 0 0 0 0 0 0 0 0 0 0 0 0 0 0 0 3 10 10 10 10 6 10 13 10 10 10 6 3 0 0 0 0 0 0 0 0 0
0 0 0 0 0 0 0 0 0 0 0 0 0 0 0 0 0 0 0 0 0 0 0 3 6 10 10 6 19 16 10 10 10 10 6 3 0 0 0 0 0 0 0 0
0 0 0 0 0 0 0 0 0 0 0 0 0 0 0 0 0 0 0 0 0 0 3 0 3 10 10 10 13 16 13 13 10 10 6 6 6 0 0 0 0 0 0 0
0 0 0 0 0 0 0 0 0 0 0 0 0 0 0 0 0 0 0 0 0 0 0 0 3 6 13 13 13 16 19 16 13 10 6 6 6 3 0 0 0 0 0 0
0 0 0 0 0 0 0 0 0 0 0 0 0 0 0 0 0 0 0 3 3 3 3 6 6 6 16 13 13 13 16 13 10 10 6 6 6 6 3 3 3 3 3 0
0 0 0 0 0 0 0 0 0 0 0 0 0 0 0 0 0 0 0 3 3 3 0 6 10 10 10 13 13 16 16 16 13 10 10 10 10 10 10 3 3 3 3 0
0 0 0 0 0 0 0 0 0 0 0 0 0 0 0 0 0 0 0 0 3 3 0 3 3 6 10 10 10 16 16 13 6 10 10 13 10 10 6 3 3 3 3 3
0 0 0 0 0 0 0 0 0 0 0 0 0 0 0 0 0 0 0 0 3 3 3 0 3 3 6 10 10 10 10 10 10 13 10 10 6 6 6 3 3 0 0 3
0 0 0 0 0 0 0 0 0 0 0 0 0 0 0 0 0 0 0 0 0 3 6 3 3 3 3 3 6 6 6 6 10 10 6 6 6 6 6 6 3 3 3 3
0 0 0 0 0 0 0 0 0 0 0 0 0 0 0 0 0 0 0 0 0 0 3 3 3 3 3 3 3 3 3 10 10 3 3 6 6 6 6 6 6 3 3 3
0 0 0 0 0 0 0 0 0 0 0 0 0 0 0 0 0 0 0 0 0 0 0 3 3 3 3 3 3 3 3 3 3 3 3 3 3 3 3 3 3 3 3 3
0 0 0 0 0 0 0 0 0 0 0 0 0 0 3 3 3 3 3 3 0 0 0 0 0 3 3 3 3 3 3 3 3 3 3 3 3 3 3 3 3 3 3 3
0 0 0 0 0 0 0 0 0 0 0 0 0 3 6 3 0 3 0 0 0 0 0 0 0 0 0 0 3 3 3 3 3 3 0 0 0 0 0 0 0 0 0 0
0 0 0 0 0 0 0 0 0 0 0 0 0 0 0 0 0 0 0 0 0 0 0 0 0 0 0 0 0 0 0 0 0 0 0 0 0 0 0 0 0 0 0 0
0 0 0 0 0 0 0 0 0 0 0 0 0 0 0 0 0 0 0 0 0 0 0 0 0 0 0 0 0 0 0 0 0 0 0 0 0 0 0 0 0 0 0 0
0 0 0 0 0 0 0 0 0 0 0 3 0 0 0 0 0 0 0 0 0 0 0 0 0 0 0 0 0 0 0 0 0 0 0 0 0 0 0 0 0 0 0 0
0 0 0 0 0 0 0 0 0 3 0 0 0 0 0 0 0 0 0 0 0 0 0 0 0 0 0 0 0 0 0 0 0 0 0 0 0 0 0 0 0 0 0 0
0 0 0 0 0 0 0 0 0 0 0 0 0 0 0 0 0 0 0 0 0 0 0 0 0 0 0 0 0 0 0 0 0 0 0 0 0 0 0 0 0 0 0 0
0 0 0 0 0 0 0 0 0 0 0 0 0 0 0 0 0 0 0 0 0 0 0 0 0 0 0 0 0 0 0 0 0 0 0 0 0 0 0 0 0 0 0 0
Height
5862 5864 5863 5862 5863 5863 5863 5863 5863 5862 5860 5859 5857 5855 5853 5850 5847 5844 5841 5838 5835 5833 5831 5830 5829 5828 5828 5829 5832 5835 5837 5839 5842 5845 5848 5851 5854 5856 5858 5860 5862 5864 5865 5867
5859 5860 5859 5858 5860 5860 5860 5861 5860 5860 5858 5856 5855 5853 5851 5848 5845 5842 5840 5837 5835 5832 5830 5828 5827 5827 5827 5828 5829 5832 5835 5837 5840 5843 5846 5849 5852 5854 5857 5859 5861 5863 5864 5866
5854 5856 5854 5855 5857 5857 5858 5858 5858 5857 5856 5854 5853 5852 5850 5847 5844 5841 5839 5837 5835 5833 5831 5829 5827 5826 5826 5826 5828 5830 5832 5835 5838 5841 5845 5848 5850 5852 5855 5857 5859 5861 5863 5865
5850 5851 5851 5852 5853 5854 5855 5855 5855 5855 5854 5853 5852 5850 5848 5846 5843 5841 5839 5837 5835 5833 5831 5829 5827 5826 5825 5825 5827 5828 5831 5834 5837 5840 5843 5845 5848 5851 5854 5856 5858 5860 5861 5863
5846 5846 5847 5849 5851 5851 5853 5853 5853 5852 5852 5851 5850 5848 5848 5844 5842 5840 5838 5836 5834 5832 5830 5828 5827 5825 5824 5825 5826 5828 5830 5833 5836 5838 5841 5844 5847 5850 5852 5854 5856 5858 5860 5862
5842 5842 5844 5846 5848 5848 5850 5850 5850 5850 5850 5850 5848 5847 5846 5843 5841 5839 5837 5835 5833 5832 5830 5828 5827 5825 5824 5825 5826 5827 5829 5832 5834 5836 5839 5843 5845 5848 5850 5852 5854 5856 5858 5860
5838 5839 5840 5843 5844 5845 5846 5847 5847 5847 5848 5848 5846 5845 5844 5842 5840 5838 5836 5834 5833 5832 5830 5829 5827 5825 5824 5824 5825 5826 5828 5830 5832 5835 5838 5841 5843 5846 5848 5850 5852 5854 5857 5858
5833 5836 5837 5839 5841 5842 5843 5844 5845 5845 5845 5845 5844 5843 5843 5840 5838 5836 5835 5834 5832 5831 5830 5829 5827 5826 5825 5824 5824 5825 5826 5828 5831 5833 5836 5838 5841 5844 5846 5848 5850 5852 5854 5856
5829 5832 5833 5834 5836 5838 5839 5840 5841 5841 5841 5841 5842 5842 5841 5839 5837 5835 5834 5833 5831 5830 5829 5828 5827 5826 5825 5824 5824 5824 5825 5827 5829 5831 5834 5836 5839 5841 5844 5846 5848 5850 5852 5854
5825 5827 5829 5830 5832 5833 5835 5836 5837 5838 5837 5838 5839 5839 5839 5837 5835 5834 5833 5831 5830 5829 5828 5827 5826 5825 5825 5824 5824 5824 5825 5826 5828 5830 5832 5834 5836 5838 5840 5843 5845 5846 5848 5850
5821 5824 5826 5827 5828 5830 5831 5832 5833 5834 5834 5834 5835 5838 5836 5835 5833 5832 5831 5830 5829 5828 5827 5826 5826 5825 5825 5824 5823 5824 5824 5824 5826 5828 5830 5831 5833 5835 5838 5840 5841 5843 5845 5846
5816 5819 5821 5823 5825 5825 5827 5828 5829 5830 5831 5831 5831 5836 5832 5832 5831 5830 5829 5828 5827 5826 5825 5825 5824 5824 5824 5823 5823 5823 5822 5823 5824 5825 5827 5829 5830 5832 5834 5836 5837 5839 5841 5842
5810 5812 5815 5818 5821 5822 5822 5823 5825 5826 5826 5826 5827 5831 5829 5828 5828 5827 5826 5825 5825 5824 5823 5822 5822 5822 5822 5822 5822 5822 5821 5821 5822 5823 5824 5825 5827 5829 5830 5832 5833 5835 5836 5837
5803 5805 5808 5811 5813 5815 5816 5818 5819 5821 5821 5822 5823 5825 5825 5825 5824 5824 5823 5823 5822 5822 5821 5820 5820 5819 5820 5820 5820 5820 5820 5819 5820 5820 5821 5823 5824 5826 5827 5828 5829 5830 5831 5832
5796 5798 5800 5802 5805 5807 5809 5811 5813 5814 5816 5817 5819 5820 5821 5820 5820 5820 5820 5819 5819 5819 5818 5817 5817 5817 5817 5817 5817 5817 5817 5817 5817 5818 5818 5819 5821 5822 5823 5823 5824 5825 5826 5826
5787 5789 5791 5794 5796 5798 5800 5803 5806 5807 5809 5811 5812 5814 5815 5815 5815 5815 5816 5816 5816 5815 5815 5814 5814 5814 5814 5814 5815 5815 5814 5814 5814 5814 5814 5815 5817 5818 5818 5818 5818 5819 5819 5819
5778 5780 5782 5784 5787 5788 5789 5795 5798 5800 5802 5804 5806 5809 5809 5810 5811 5811 5811 5811 5811 5812 5811 5811 5811 5811 5811 5811 5811 5811 5811 5811 5810 5810 5810 5812 5812 5812 5813 5813 5813 5813 5813 5813
5769 5771 5772 5774 5777 5777 5784 5787 5789 5791 5793 5796 5799 5801 5803 5804 5805 5806 5807 5807 5807 5808 5807 5807 5807 5807 5807 5807 5807 5807 5807 5807 5807 5807 5807 5807 5807 5807 5807 5807 5807 5807 5806 5806
5760 5761 5762 5764 5765 5767 5773 5776 5779 5781 5784 5788 5791 5793 5795 5797 5798 5800 5801 5802 5802 5802 5803 5802 5803 5803 5803 5803 5803 5803 5803 5802 5802 5802 5802 5801 5801 5801 5801 5801 5800 5799 5799 5798
5750 5751 5753 5754 5755 5757 5764 5767 5768 5772 5775 5780 5783 5785 5788 5790 5792 5794 5794 5795 5795 5796 5797 5798 5798 5799 5799 5799 5798 5798 5798 5797 5797 5797 5796 5796 5796 5795 5794 5793 5792 5791 5790 5789
5741 5742 5743 5744 5745 5748 5754 5756 5759 5763 5768 5772 5775 5778 5780 5782 5785 5787 5787 5788 5789 5790 5791 5792 5793 5793 5794 5794 5793 5793 5792 5792 5792 5791 5791 5790 5789 5788 5787 5786 5785 5783 5782 5780
5733 5734 5735 5736 5737 5743 5745 5747 5751 5755 5759 5762 5766 5769 5772 5774 5776 5778 5780 5782 5783 5784 5785 5786 5787 5787 5787 5788 5788 5787 5787 5786 5786 5785 5784 5783 5782 5781 5780 5778 5777 5775 5774 5772
5725 5727 5727 5729 5733 5734 5736 5739 5743 5746 5750 5754 5757 5761 5764 5766 5768 5770 5772 5774 5776 5777 5778 5780 5781 5781 5781 5781 5781 5781 5781 5780 5779 5778 5777 5775 5774 5773 5771 5770 5768 5766 5764 5763
5719 5719 5720 5722 5724 5726 5729 5732 5735 5739 5742 5746 5749 5754 5757 5759 5761 5763 5765 5766 5768 5770 5771 5773 5774 5774 5774 5774 5774 5774 5773 5772 5772 5770 5769 5767 5766 5764 5762 5760 5758 5756 5754 5752
5712 5713 5714 5716 5719 5720 5723 5726 5729 5732 5736 5739 5742 5746 5749 5752 5755 5757 5759 5760 5762 5763 5765 5766 5767 5767 5767 5767 5767 5766 5765 5765 5764 5762 5761 5759 5757 5755 5753 5751 5749 5746 5744 5741
5708 5709 5710 5712 5715 5716 5719 5721 5724 5727 5730 5733 5736 5739 5742 5746 5749 5751 5752 5754 5756 5757 5758 5759 5760 5760 5760 5760 5760 5759 5758 5757 5756 5754 5752 5750 5748 5746 5743 5741 5739 5736 5733 5730
Wind_Speed
19 18 16 16 16 15 15 14 13 13 13 13 14 15 17 17 17 16 15 14 14 11 9 7 6 5 6 8 12 15 15 15 16 16 16 16 15 13 13 12 11 10 9 8
19 17 18 18 17 17 17 16 15 14 14 14 14 16 17 17 17 15 13 13 13 12 9 7 5 5 6 7 10 13 15 16 16 16 16 16 15 14 14 13 13 11 10 9
19 18 21 19 17 18 17 17 17 16 15 14 14 15 16 16 15 14 13 12 12 12 10 7 5 5 5 8 9 14 15 16 15 16 17 16 15 15 15 15 13 12 11 10
18 20 21 19 18 18 18 18 18 16 15 14 14 15 14 16 15 14 13 11 11 11 10 8 6 4 6 8 9 12 14 15 14 14 15 16 14 14 15 15 14 13 12 11
18 20 21 19 18 19 18 18 18 16 15 14 15 15 14 15 14 13 12 11 11 10 9 8 6 3 3 7 10 11 14 15 14 13 15 16 15 15 15 15 15 14 13 12
18 20 20 18 17 18 17 18 18 16 15 14 14 14 13 14 14 12 11 11 10 9 8 7 6 4 2 5 8 11 14 15 15 14 16 16 15 15 15 15 15 15 14 14
17 18 17 16 16 17 17 17 18 16 14 12 13 12 13 12 12 11 11 10 10 9 8 7 6 4 2 4 6 10 13 14 16 15 16 17 16 16 16 15 15 15 16 15
15 15 16 15 14 16 17 18 18 17 14 12 11 11 12 10 10 11 11 11 9 8 8 7 5 3 2 3 5 8 11 14 15 14 15 16 16 16 16 16 16 17 17 16
16 16 17 16 16 17 17 17 17 18 16 14 12 11 9 8 10 11 11 11 10 8 7 6 5 4 3 2 5 7 11 13 14 14 15 15 16 17 17 17 18 18 18 18
20 20 19 18 19 18 18 17 18 18 18 16 13 11 10 10 10 10 11 11 9 8 7 7 6 5 4 3 4 7 10 12 14 15 15 16 16 17 18 19 19 19 19 19
22 20 20 22 21 20 20 20 19 19 19 18 16 12 12 12 10 10 11 11 10 8 8 8 7 6 6 5 5 7 9 12 13 14 16 17 17 18 19 20 20 20 20 21
25 22 21 23 24 24 24 23 22 21 19 18 17 13 13 12 12 11 11 11 10 8 8 8 8 8 8 7 6 6 8 10 12 14 15 17 18 19 20 21 21 21 22 22
29 28 25 24 25 26 27 26 24 22 21 20 18 15 14 13 13 12 11 10 10 9 9 10 10 9 9 9 8 7 8 9 11 13 15 15 17 18 19 20 21 22 23 24
34 33 31 29 27 27 28 27 26 26 24 22 19 17 16 15 14 13 12 11 12 11 11 10 10 10 10 10 10 9 9 10 11 13 15 15 16 17 19 20 22 23 25 26
40 38 37 36 33 31 30 29 29 28 27 25 22 20 18 16 15 13 13 13 13 14 12 11 11 11 11 11 10 10 11 12 13 14 15 16 17 18 19 21 23 25 26 27
43 43 42 40 38 37 35 33 32 31 30 27 25 22 19 17 15 14 13 13 13 14 13 12 13 13 12 12 12 12 12 12 13 15 17 17 17 18 19 21 23 24 25 25
43 44 44 43 41 41 40 35 34 33 31 30 27 23 21 20 18 16 15 15 15 14 14 13 14 14 13 13 13 13 14 14 15 15 16 17 19 20 20 21 22 22 23 25
39 40 42 42 42 44 39 36 35 34 32 30 28 25 23 21 19 18 17 16 16 16 16 15 15 15 15 15 15 15 16 16 16 17 19 20 20 21 21 22 24 25 26 28
37 38 40 41 42 42 39 37 36 35 34 31 28 26 25 22 21 20 19 18 18 18 17 16 16 16 16 16 16 17 16 17 18 18 19 20 21 21 22 23 24 26 28 29
34 36 38 39 40 40 37 35 36 36 35 31 29 27 26 24 23 21 21 20 20 19 18 17 17 17 18 18 17 17 18 18 19 20 20 21 22 23 24 25 26 28 29 30
31 33 35 37 38 37 35 34 34 35 32 30 29 28 26 25 24 23 22 20 20 20 20 19 18 18 18 19 19 19 20 20 20 21 21 22 23 24 25 25 26 27 28 30
27 29 31 32 34 33 31 30 31 30 29 29 29 28 26 26 25 24 22 22 21 21 20 19 20 20 19 20 20 21 21 21 21 22 22 23 24 25 26 27 27 28 29 30
24 25 27 28 28 27 27 28 27 26 26 27 28 27 26 25 24 24 24 24 22 21 21 21 21 21 21 21 22 22 23 22 23 24 24 25 26 27 28 29 30 30 31 32
22 23 25 23 22 22 23 24 25 25 25 27 28 28 27 26 24 23 23 22 21 20 20 21 21 21 22 22 23 23 23 24 24 25 26 27 28 29 30 30 31 32 33 34
17 19 20 20 19 19 20 21 22 23 23 24 26 28 27 25 23 23 22 21 21 21 20 21 21 22 22 23 23 23 24 25 26 27 28 29 30 31 31 32 33 33 34 35
12 14 16 18 17 17 18 20 21 22 21 22 23 24 24 23 23 21 19 20 21 20 20 20 21 22 22 23 23 24 25 27 28 29 30 31 31 32 33 34 35 35 36 37
Wind_Direction
274 269 262 255 256 257 263 270 277 286 298 313 327 332 333 335 336 337 336 335 335 333 324 310 295 270 242 224 217 214 207 205 207 206 207 207 206 206 207 208 209 209 210 209
269 262 253 252 254 257 262 270 278 284 296 312 325 331 333 335 336 335 333 331 331 333 332 319 299 267 231 214 211 209 208 208 206 204 204 205 208 208 208 205 206 208 210 207
262 252 251 252 254 258 262 270 279 289 299 312 322 329 332 335 335 332 327 324 327 329 328 324 302 265 235 218 214 211 205 208 205 202 203 205 208 208 206 204 205 207 208 205
254 250 251 252 252 256 258 268 278 288 299 309 318 324 329 333 333 333 330 323 322 322 327 327 316 282 238 218 206 204 204 203 203 202 203 205 207 208 207 206 207 207 208 208
250 247 249 249 248 253 258 266 276 286 296 306 315 320 326 329 333 328 328 327 325 325 328 329 325 311 239 211 208 205 202 202 204 207 205 207 212 212 211 210 212 211 212 214
244 245 247 246 244 251 260 266 275 283 293 303 312 320 326 324 330 328 325 326 325 324 323 324 326 320 258 217 210 206 205 206 205 207 206 212 215 217 217 217 217 216 216 217
238 241 243 240 241 250 259 265 273 279 287 299 307 316 327 323 328 327 324 323 322 316 318 319 323 321 268 215 210 208 207 205 205 205 207 213 217 219 221 221 222 223 221 221
232 232 237 237 237 242 251 260 271 277 282 288 296 313 327 328 326 324 320 317 315 307 307 317 319 321 296 236 212 210 209 205 204 206 209 214 220 223 222 224 226 228 228 228
222 221 227 228 227 232 241 253 265 273 281 285 292 307 320 324 324 320 317 317 310 304 299 306 313 304 296 260 227 221 212 210 209 212 215 220 224 226 226 228 230 231 233 234
227 221 221 225 229 231 238 247 258 268 278 283 291 303 311 316 318 315 315 313 308 301 292 293 298 287 286 275 248 235 226 217 217 220 223 225 225 227 228 230 233 235 236 239
242 236 225 229 234 236 241 246 254 262 273 282 290 304 305 305 303 305 308 307 305 301 292 287 286 281 273 270 263 243 235 225 225 229 231 232 232 233 233 235 237 238 240 243
252 250 241 236 239 242 246 250 255 261 270 278 286 298 300 301 293 293 299 301 296 296 296 290 283 277 266 263 264 252 244 235 233 233 235 238 239 239 237 238 240 242 245 248
258 258 256 249 246 246 250 253 256 261 268 275 281 292 294 292 292 288 288 291 293 285 290 288 277 270 264 261 262 260 257 251 243 238 236 238 241 240 241 243 245 248 250 252
259 261 261 259 255 254 254 254 256 261 266 273 278 286 289 288 289 285 281 279 280 279 282 282 274 268 265 261 262 264 265 260 252 247 244 244 246 246 248 248 250 252 255 258
257 260 263 264 263 260 259 257 259 262 267 270 275 281 284 286 289 282 277 271 272 275 275 272 267 268 266 265 267 271 272 267 257 254 251 251 252 254 256 256 257 258 261 262
254 257 260 263 264 263 261 259 260 263 266 269 273 278 277 279 282 277 271 266 266 268 268 268 264 264 265 264 267 273 275 271 265 260 260 257 256 259 260 261 261 262 263 265
254 256 259 261 262 262 261 261 262 264 264 266 268 272 272 273 274 271 267 264 260 262 264 264 262 263 264 262 265 270 272 272 269 264 266 267 263 265 265 269 268 268 269 269
253 255 258 261 261 260 263 263 262 262 261 263 265 265 267 268 267 267 267 264 258 259 261 260 256 257 259 260 263 268 271 274 272 269 269 268 269 270 270 270 269 270 271 271
254 255 257 259 261 262 262 261 260 259 258 259 261 261 262 262 261 264 262 262 261 257 258 257 254 255 256 260 264 267 271 271 271 272 275 274 274 274 273 274 273 271 272 273
255 256 257 258 259 260 261 260 259 257 255 255 257 259 260 258 259 260 257 260 258 254 251 252 254 255 258 262 266 269 270 271 272 273 274 277 279 279 279 278 277 275 274 273
255 255 256 257 258 259 258 257 256 254 255 251 251 254 256 253 255 255 253 255 255 253 250 251 254 257 261 263 267 270 272 273 275 276 277 281 282 282 283 284 283 281 279 278
257 256 256 255 255 255 255 254 253 254 251 246 244 246 248 251 253 251 250 250 253 252 252 253 257 260 263 265 268 272 274 275 279 281 281 283 284 285 285 285 285 284 282 282
256 254 252 252 254 253 250 248 247 247 244 240 239 240 246 249 250 250 248 250 250 251 251 256 260 264 266 267 270 274 276 279 282 283 284 285 287 288 287 287 286 285 283 282
257 253 250 249 247 245 244 241 241 239 239 238 237 239 242 244 247 247 246 243 245 247 251 257 261 266 269 272 273 276 279 283 285 286 286 287 288 289 289 288 287 286 286 285
254 250 247 242 242 241 240 237 237 236 234 235 235 236 238 240 242 245 243 242 246 249 252 257 261 267 271 274 276 279 282 285 287 288 289 289 290 290 290 290 289 288 287 286
250 246 239 235 236 233 231 233 232 230 232 232 231 231 235 238 240 239 241 243 246 249 252 257 264 269 272 276 280 283 285 287 289 290 291 292 291 291 291 290 290 289 288 287